Weather History for KGRD - February, 2013

Change the Weather History Date:

Saturday, February 9, 2013

  Actual Average (KAND) Record (KAND)
Temperature  
Mean Temperature 44 °F -  
Max Temperature 61 °F 51 °F 73 °F (1991)
Min Temperature 28 °F 29 °F 1 °F (2011)
Degree Days  
Heating Degree Days 20    
Moisture  
Dew Point 25 °F    
Average Humidity 53    
Maximum Humidity 92    
Minimum Humidity 17    
Precipitation  
Precipitation 0.00 in - - ()
Sea Level Pressure  
Sea Level Pressure 30.26 in    
Wind  
Wind Speed 2 mph (NNE)    
Max Wind Speed 5 mph    
Max Gust Speed -    
Visibility 10 miles    
Events      
Averages and records for this station are not official NWS values.
T = Trace of Precipitation, MM = Missing Value Source: NWS Daily Summary

Daily Weather History Graph

Daily Weather History Graph

Search for Another Location

Airport or City:

Trip Planner

Search our weather history database for the weather conditions in past years. The results will help you decide how hot, cold, wet, or windy it might be!

Date:

Astronomy

Feb. 09, 2013 Rise Set
Actual Time 7:19 AM EST 6:06 PM EST
Civil Twilight 6:53 AM EST 6:32 PM EST
Nautical Twilight 6:23 AM EST 7:02 PM EST
Astronomical Twilight 5:54 AM EST 7:31 PM EST
Moon 6:30 AM EST (2/9) 5:46 PM EST (2/9)
Length of Visible Light 11h 39m
Length of Day
10h 47m
Waning Crescent, 0% of the Moon is Illuminated
Feb 9
Waning Crescent
Feb 10
New
Feb 17
First Quarter
Feb 25
Full
Mar 4
Last Quarter

Hourly Weather History & Observations

Time (EST) Temp. Windchill Dew Point Humidity Pressure Visibility Wind Dir Wind Speed Gust Speed Precip Events Conditions
12:56 AM 37.9 °F 35.5 °F 30.0 °F 73% 30.13 in 10.0 mi NNW 3.5 mph - N/A   Clear
1:56 AM 35.1 °F - 30.0 °F 82% 30.14 in 10.0 mi Calm Calm - N/A   Clear
2:56 AM 36.0 °F 33.3 °F 28.9 °F 76% 30.16 in 10.0 mi North 3.5 mph - N/A   Clear
3:56 AM 36.0 °F 33.3 °F 27.0 °F 70% 30.18 in 10.0 mi NW 3.5 mph - N/A   Clear
4:56 AM 32.0 °F - 26.1 °F 79% 30.19 in 10.0 mi Calm Calm - N/A   Clear
5:56 AM 30.0 °F - 26.1 °F 85% 30.23 in 10.0 mi Calm Calm - N/A   Clear
6:56 AM 28.0 °F - 25.0 °F 88% 30.25 in 10.0 mi Calm Calm - N/A   Clear
7:56 AM 28.0 °F - 26.1 °F 92% 30.28 in 10.0 mi Calm Calm - N/A   Clear
8:56 AM 41.0 °F 39.0 °F 30.0 °F 65% 30.29 in 10.0 mi North 3.5 mph - N/A   Clear
9:56 AM 45.0 °F - 27.0 °F 49% 30.32 in 10.0 mi Calm Calm - N/A   Clear
10:56 AM 50.0 °F - 27.0 °F 41% 30.32 in 10.0 mi ESE 4.6 mph - N/A   Clear
11:56 AM 55.0 °F - 24.1 °F 30% 30.32 in 10.0 mi North 3.5 mph - N/A   Clear
12:56 PM 57.9 °F - 21.9 °F 25% 30.30 in 10.0 mi Variable 3.5 mph - N/A   Clear
1:56 PM 59.0 °F - 17.1 °F 20% 30.29 in 10.0 mi Calm Calm - N/A   Clear
2:56 PM 61.0 °F - 18.0 °F 19% 30.26 in 10.0 mi Variable 4.6 mph - N/A   Clear
3:56 PM 61.0 °F - 16.0 °F 17% 30.25 in 10.0 mi Calm Calm - N/A   Clear
4:56 PM 61.0 °F - 17.1 °F 18% 30.26 in 10.0 mi Calm Calm - N/A   Clear
5:56 PM 57.9 °F - 21.0 °F 24% 30.26 in 10.0 mi Calm Calm - N/A   Clear
6:56 PM 48.9 °F - 26.1 °F 41% 30.29 in 10.0 mi Calm Calm - N/A   Clear
7:56 PM 44.1 °F - 27.0 °F 51% 30.31 in 10.0 mi Calm Calm - N/A   Clear
8:56 PM 43.0 °F - 26.1 °F 51% 30.32 in 10.0 mi Calm Calm - N/A   Clear
9:56 PM 42.1 °F 40.2 °F 25.0 °F 51% 30.32 in 10.0 mi ESE 3.5 mph - N/A   Clear
10:56 PM 43.0 °F - 27.0 °F 53% 30.32 in 10.0 mi Calm Calm - N/A   Clear
11:56 PM 37.9 °F 35.5 °F 28.0 °F 68% 30.33 in 10.0 mi ESE 3.5 mph - N/A   Clear